| time (UTC) | temp F | wind direction | speed MPH | gust MPH | rain 1hr in | rain 24hr in | rain mn in | humidity % | barometer mb |
| 20260505040602 | 67 | 0 | 0.0 | 0.0 | 0.00 | 0.06 | 0.18 | 57 | 1019.4 |
| 20260505035102 | 67 | 332 | 0.0 | 0.0 | 0.00 | 0.06 | 0.18 | 57 | 1019.6 |
| 20260505033602 | 67 | 315 | 0.0 | 0.0 | 0.00 | 0.06 | 0.18 | 59 | 1019.7 |
| 20260505032102 | 67 | 315 | 0.0 | 0.0 | 0.00 | 0.06 | 0.18 | 58 | 1019.9 |
| 20260505030602 | 67 | 315 | 0.0 | 0.0 | 0.00 | 0.06 | 0.18 | 57 | 1020.0 |
| 20260505025330 | 67 | 22 | 0.0 | 0.0 | 0.00 | 0.06 | 0.18 | 57 | 1020.1 |
| 20260505023830 | 67 | 315 | 0.0 | 0.0 | 0.00 | 0.06 | 0.18 | 56 | 1020.3 |
| 20260505022330 | 67 | 22 | 0.0 | 0.0 | 0.00 | 0.06 | 0.18 | 49 | 1020.5 |
| 20260505020829 | 66 | 36 | 0.0 | 0.0 | 0.00 | 0.06 | 0.18 | 50 | 1020.4 |
| 20260505015329 | 66 | 24 | 0.0 | 0.0 | 0.00 | 0.06 | 0.18 | 52 | 1020.6 |
| 20260505013829 | 65 | 22 | 0.0 | 0.0 | 0.00 | 0.06 | 0.18 | 56 | 1020.6 |
| 20260505012329 | 64 | 22 | 0.0 | 0.0 | 0.00 | 0.06 | 0.18 | 59 | 1020.7 |
| 20260505010829 | 63 | 22 | 0.0 | 0.0 | 0.00 | 0.06 | 0.18 | 62 | 1020.8 |
| 20260505005329 | 62 | 44 | 0.0 | 0.0 | 0.00 | 0.06 | 0.18 | 64 | 1021.0 |
| 20260505003829 | 62 | 45 | 0.0 | 0.0 | 0.00 | 0.06 | 0.18 | 67 | 1021.1 |
| 20260505002329 | 60 | 22 | 0.0 | 0.0 | 0.00 | 0.06 | 0.18 | 68 | 1021.2 |
| 20260505000829 | 60 | 45 | 0.0 | 0.0 | 0.00 | 0.06 | 0.18 | 71 | 1021.0 |
| 20260504235328 | 59 | 45 | 0.0 | 0.0 | 0.00 | 0.06 | 0.18 | 74 | 1021.1 |
| 20260504233828 | 58 | 68 | 0.0 | 0.0 | 0.00 | 0.06 | 0.18 | 75 | 1021.1 |
| 20260504232328 | 58 | 112 | 0.0 | 0.0 | 0.00 | 0.06 | 0.18 | 79 | 1021.2 |
| 20260504230828 | 57 | 112 | 0.0 | 0.0 | 0.00 | 0.06 | 0.18 | 79 | 1021.2 |
| 20260504225328 | 56 | 180 | 0.0 | 0.0 | 0.00 | 0.06 | 0.18 | 79 | 1021.2 |
| 20260504223828 | 55 | 202 | 0.0 | 0.0 | 0.00 | 0.06 | 0.18 | 81 | 1021.2 |
| 20260504222328 | 54 | 190 | 0.0 | 0.0 | 0.00 | 0.06 | 0.18 | 84 | 1021.1 |
| 20260504220828 | 52 | 202 | 0.0 | 0.0 | 0.00 | 0.06 | 0.18 | 85 | 1021.1 |
| 20260504215328 | 51 | 202 | 0.0 | 0.0 | 0.00 | 0.06 | 0.18 | 88 | 1020.9 |
| 20260504213828 | 50 | 248 | 0.0 | 0.0 | 0.00 | 0.06 | 0.18 | 88 | 1020.8 |
| 20260504212327 | 49 | 248 | 0.0 | 0.0 | 0.00 | 0.06 | 0.18 | 89 | 1020.8 |
| 20260504210827 | 49 | 248 | 0.0 | 0.0 | 0.00 | 0.06 | 0.18 | 88 | 1020.6 |
| 20260504205327 | 48 | 248 | 0.0 | 0.0 | 0.00 | 0.06 | 0.18 | 88 | 1020.3 |
| 20260504203827 | 48 | 248 | 0.0 | 0.0 | 0.00 | 0.06 | 0.18 | 88 | 1020.1 |
| 20260504202327 | 48 | 248 | 0.0 | 0.0 | 0.00 | 0.06 | 0.18 | 88 | 1020.0 |
| 20260504200827 | 48 | 248 | 0.0 | 0.0 | 0.00 | 0.06 | 0.18 | 87 | 1019.8 |
| 20260504195327 | 49 | 248 | 0.0 | 0.0 | 0.00 | 0.06 | 0.18 | 87 | 1019.6 |
| 20260504193827 | 49 | 248 | 0.0 | 0.0 | 0.00 | 0.06 | 0.18 | 87 | 1019.5 |
| 20260504192327 | 49 | 248 | 0.0 | 0.0 | 0.00 | 0.06 | 0.18 | 86 | 1019.2 |
| 20260504190827 | 49 | 248 | 0.0 | 0.0 | 0.00 | 0.06 | 0.18 | 86 | 1019.2 |
| 20260504185326 | 49 | 248 | 0.0 | 0.0 | 0.00 | 0.06 | 0.18 | 86 | 1019.0 |
| 20260504183826 | 50 | 248 | 0.0 | 0.0 | 0.00 | 0.06 | 0.18 | 86 | 1018.9 |
| 20260504182326 | 50 | 248 | 0.0 | 0.0 | 0.00 | 0.06 | 0.18 | 86 | 1018.8 |
| 20260504180826 | 50 | 248 | 0.0 | 0.0 | 0.00 | 0.06 | 0.18 | 86 | 1018.7 |
| 20260504175326 | 50 | 248 | 0.0 | 0.0 | 0.00 | 0.06 | 0.18 | 86 | 1018.6 |
| 20260504173826 | 50 | 248 | 0.0 | 0.0 | 0.00 | 0.06 | 0.18 | 86 | 1018.5 |
| 20260504172326 | 50 | 248 | 0.0 | 0.0 | 0.00 | 0.06 | 0.18 | 85 | 1018.4 |
| 20260504170826 | 50 | 248 | 0.0 | 0.0 | 0.00 | 0.06 | 0.18 | 84 | 1018.5 |
| 20260504150825 | 53 | 248 | 0.0 | 0.0 | 0.00 | 0.06 | 0.18 | 80 | 1018.2 |
| 20260504045730 | 64 | 211 | 0.0 | 0.0 | 0.00 | 0.12 | 0.12 | 62 | 1009.4 |